World > North America > United States > Washington

Tacoma, Washington Regional Weather

Lat: 47.25N, Lon: 122.44W
Wx Zone: WAZ509
Feedback

Tacoma, WA Regional Weather

Expires:201908220100;;007374
ASUS46 KSEW 220010
RWRWA 

WASHINGTON REGIONAL WEATHER ROUNDUP
NATIONAL WEATHER SERVICE SEATTLE WA
500 PM PDT WED AUG 21 2019

NOTE:"FAIR" INDICATES FEW OR NO CLOUDS BELOW 12,000 FEET WITH NO 
SIGNIFICANT WEATHER AND/OR OBSTRUCTIONS TO VISIBILITY.


WAZ507-509-555>559-220100-
SEATTLE, TACOMA, EVERETT, AND VICINITY
  
CITY           SKY/WX    TMP DP  RH WIND       PRES   REMARKS
EVERETT        CLOUDY    64  59  83 SW5       29.98S                  
6HR MIN TEMP:  63; 6HR MAX TEMP:  68; 6HR PCP: TRACE;                

BOEING FIELD   LGT RAIN  66  61  84 CALM      29.97S                  
6HR MIN TEMP:  65; 6HR MAX TEMP:  71; 6HR PCP:  0.05;                

RENTON         HVY RAIN  65  64  97 CALM      29.96R VSB 3/4          
6HR MIN TEMP:  65; 6HR MAX TEMP:  70; 6HR PCP:  0.16;                

SEATAC AIRPORT LGT RAIN  64  62  93 W5        29.97S FOG              
6HR MIN TEMP:  63; 6HR MAX TEMP:  70; 6HR PCP:  0.13;                

JBLM-MCCHORD   LGT RAIN  68  63  83 VRB1      29.96S                  
                                      6HR PCP:  0.01;                

PUYALLUP       CLOUDY    70  64  83 VRB5      29.97R                  
BREMERTON      CLOUDY    65  61  87 VRB6      29.96S                  
6HR MIN TEMP:  61; 6HR MAX TEMP:  68; 6HR PCP: TRACE;                

JBLM-FT LEWIS  LGT RAIN  68  68 100 S5        29.95F                  
6HR MIN TEMP:  63; 6HR MAX TEMP:  68; 6HR PCP: TRACE;                

TACOMA NARROWS CLOUDY    64  64 100 SW3       29.96S FOG              
6HR MIN TEMP:  60; 6HR MAX TEMP:  65; 6HR PCP:  0.02;                

$$
 

SKY/WX - Weather  TMP - Temperature  DP - Dew Point  RH - Relative Humidity
WIND - Wind Direction/Speed PRES - Barometric Pressure VSB - Visibility
WCI - Wind Chill Index E13G22 Wind - East Wind 13 mph/Gusts of 22 mph